Time[GMT],air_temperature[C](-3m),wind_speed[m/s](-4m),wind_gust[m/s](-4m),barometric_pressure[millibars](-3m),wind_2_direction[degrees_true](-4m),wind_2_gust[m/s](-4m),wind_2_gust_1s[m/s](-4m),wind_2_min[m/s](-4m),wind_2_percent_good[1](-4m),wind_2_speed[m/s](-4m),wind_direction[degrees_true](-4m),wind_gust_1s[m/s](-4m),wind_min[m/s](-4m)
2009-06-09 14:00,27.5,,,1015.71,79.75,7.64,8.76,3.16,1.00,5.76,,,
2009-06-09 15:00,27.6,,,1015.77,81.63,6.74,7.93,3.49,1.00,5.79,,,
2009-06-09 16:00,27.7,,,1015.47,88.63,6.80,8.34,3.50,1.00,5.57,,,
2009-06-09 17:00,27.8,,,1015.05,92.63,6.76,8.02,3.14,1.00,5.62,,,
2009-06-09 18:00,27.9,,,1014.69,89.53,6.62,7.76,2.37,1.00,5.47,,,
2009-06-09 19:00,28.4,,,1014.09,107.23,6.69,7.83,2.21,1.00,5.28,,,
2009-06-09 20:00,28.3,,,1013.67,107.53,5.86,6.94,2.07,1.00,4.67,,,
2009-06-09 21:00,28.5,,,1013.79,103.83,5.90,7.61,2.18,1.00,4.90,,,
2009-06-09 22:00,28.3,,,1013.91,97.73,5.76,7.43,2.38,1.00,4.61,,,
2009-06-09 23:00,28.1,,,1013.97,97.53,6.63,8.00,2.36,1.00,5.49,,,
2009-06-10 00:00,28.1,,,1014.15,89.23,8.17,9.91,3.66,1.00,6.86,,,
2009-06-10 01:00,28.1,,,1014.87,91.53,6.82,8.07,3.23,1.00,5.81,,,
2009-06-10 02:00,28.0,,,1015.05,94.83,7.12,8.11,3.56,1.00,5.93,,,
2009-06-10 03:00,28.0,,,1015.35,116.43,7.67,8.55,2.33,1.00,5.59,,,
2009-06-10 04:00,28.0,,,1014.75,102.53,7.42,8.59,3.26,1.00,6.15,,,
2009-06-10 05:00,27.9,,,1014.51,100.13,6.54,8.22,2.97,1.00,5.60,,,
2009-06-10 06:00,27.8,,,1014.33,94.93,4.93,6.13,1.63,1.00,3.86,,,
2009-06-10 07:00,26.8,,,1014.03,47.16,4.32,5.60,1.00,1.00,3.24,,,
2009-06-10 08:00,27.2,,,1013.79,59.65,4.37,5.66,0.58,1.00,2.74,,,
2009-06-10 09:00,27.4,,,1013.67,67.17,6.39,6.98,2.47,1.00,4.82,,,
2009-06-10 10:00,26.1,,,1014.09,69.28,11.87,12.74,4.60,1.00,8.65,,,
2009-06-10 11:00,25.7,,,1014.75,66.76,8.28,9.67,4.12,1.00,7.05,,,
2009-06-10 12:00,26.6,,,1015.11,98.23,8.31,10.35,4.03,1.00,7.21,,,
2009-06-10 13:00,26.6,,,1015.11,61.16,7.34,8.34,3.42,1.00,5.95,,,
2009-06-10 14:00,27.2,,,1015.23,76.07,9.00,11.20,4.18,1.00,7.13,,,
2009-06-10 15:00,26.6,,,1015.47,93.93,9.17,10.26,4.88,1.00,7.59,,,
2009-06-10 16:00,27.1,,,1015.11,107.23,8.53,9.65,2.40,1.00,5.95,,,
2009-06-10 17:00,27.1,,,1014.27,97.43,6.73,7.95,2.98,1.00,5.49,,,
2009-06-10 18:00,27.6,,,1014.09,93.33,5.16,6.52,1.45,1.00,4.09,,,
2009-06-10 19:00,27.3,,,1013.37,113.73,9.98,10.82,3.32,1.00,7.66,,,
2009-06-10 20:00,26.7,,,1013.01,83.43,6.04,7.67,2.83,1.00,5.12,,,
2009-06-10 21:00,27.1,,,1013.01,87.13,9.89,11.06,5.02,1.00,7.55,,,
2009-06-10 22:00,27.3,,,1013.43,89.13,7.95,9.32,3.48,1.00,6.57,,,
2009-06-10 23:00,26.4,,,1013.73,67.11,7.67,9.24,4.04,1.00,6.42,,,
2009-06-11 00:00,26.7,,,1014.39,49.63,6.74,8.01,2.28,1.00,5.25,,,
2009-06-11 01:00,27.0,,,1014.99,44.75,5.56,6.46,2.56,1.00,4.44,,,
2009-06-11 02:00,27.4,,,1015.29,70.75,5.08,6.04,1.70,1.00,4.01,,,
2009-06-11 03:00,26.5,,,1015.65,118.03,7.21,8.38,2.44,1.00,5.36,,,
2009-06-11 04:00,26.1,,,1015.89,95.93,8.90,10.83,2.99,1.00,7.34,,,
2009-06-11 05:00,26.2,,,1015.29,61.38,6.22,7.20,2.53,1.00,5.07,,,
2009-06-11 06:00,26.0,,,1014.63,36.77,5.84,7.06,2.72,1.00,4.72,,,
2009-06-11 07:00,26.4,,,1014.51,40.86,5.26,6.22,2.33,1.00,4.10,,,
2009-06-11 08:00,26.6,,,1014.57,43.21,6.25,6.99,2.37,1.00,4.70,,,
2009-06-11 09:00,26.6,,,1014.81,42.99,4.47,5.36,2.32,1.00,3.65,,,
2009-06-11 10:00,26.8,,,1014.93,65.87,4.93,5.92,2.05,1.00,3.99,,,
2009-06-11 11:00,24.8,,,1015.53,131.43,6.36,7.42,1.75,1.00,4.92,,,
2009-06-11 12:00,25.6,,,1015.71,56.68,6.33,6.96,3.36,1.00,5.27,,,
2009-06-11 13:00,26.2,,,1015.95,50.98,4.69,5.77,2.08,1.00,3.84,,,
2009-06-11 14:00,26.1,,,1016.07,195.83,2.81,3.52,0.08,1.00,1.67,,,
2009-06-11 15:00,27.7,,,1015.65,89.73,7.08,8.47,3.38,1.00,5.86,,,
2009-06-11 16:00,28.1,,,1015.65,107.23,6.72,8.36,2.76,1.00,5.67,,,
2009-06-11 17:00,28.0,,,1015.47,112.33,7.10,8.30,3.60,1.00,5.86,,,
2009-06-11 18:00,28.0,,,1014.99,112.93,7.74,8.58,3.65,1.00,6.19,,,
2009-06-11 19:00,28.1,,,1014.69,105.03,6.14,7.83,2.12,1.00,4.94,,,
2009-06-11 20:00,28.1,,,1014.69,114.13,6.70,7.78,3.25,1.00,5.48,,,
2009-06-11 21:00,28.2,,,1014.63,122.03,7.37,8.86,3.20,1.00,5.55,,,
2009-06-11 22:00,28.0,,,1014.93,110.43,7.28,8.18,2.95,1.00,5.62,,,
2009-06-11 23:00,28.0,,,1015.41,99.13,7.01,8.32,2.45,1.00,5.50,,,
2009-06-12 00:00,27.9,,,1015.65,103.93,7.39,8.92,3.50,1.00,6.06,,,
2009-06-12 01:00,27.8,,,1016.19,84.03,7.37,9.11,3.05,1.00,5.96,,,
2009-06-12 02:00,27.8,,,1016.37,88.53,7.74,8.98,3.20,1.00,6.22,,,
2009-06-12 03:00,27.3,,,1016.37,75.55,7.16,8.74,3.50,1.00,5.98,,,
2009-06-12 04:00,26.9,,,1015.89,73.62,7.62,8.83,3.61,1.00,6.12,,,
2009-06-12 05:00,27.1,,,1015.47,74.01,6.15,7.23,2.29,1.00,4.95,,,
2009-06-12 06:00,27.1,,,1014.99,60.09,6.33,7.21,2.37,1.00,4.78,,,
2009-06-12 07:00,25.3,,,1014.99,111.73,8.95,10.33,2.80,1.00,5.69,,,
2009-06-12 08:00,26.9,,,1014.99,104.73,8.27,9.42,3.63,1.00,6.61,,,
2009-06-12 09:00,26.8,,,1015.11,72.56,8.58,9.57,3.38,1.00,6.32,,,
2009-06-12 10:00,26.2,,,1015.59,67.13,6.53,7.95,2.21,1.00,4.85,,,
2009-06-12 11:00,27.0,,,1015.89,66.35,4.49,5.71,1.81,1.00,3.62,,,
2009-06-12 12:00,27.4,,,1015.95,81.13,6.32,7.14,1.48,1.00,4.64,,,
2009-06-12 13:00,27.2,,,1016.07,75.03,9.48,11.13,5.10,1.00,7.93,,,
2009-06-12 14:00,25.9,,,1016.37,94.93,9.03,10.50,4.12,1.00,7.15,,,
2009-06-12 15:00,27.3,,,1016.19,108.43,8.84,9.90,3.81,1.00,6.98,,,
2009-06-12 16:00,28.1,,,1016.01,102.93,8.45,9.62,4.16,1.00,6.91,,,
2009-06-12 17:00,27.6,,,1015.71,95.13,9.42,10.64,5.11,1.00,7.71,,,
2009-06-12 18:00,28.0,,,1015.41,109.53,7.57,8.96,2.55,1.00,6.17,,,
2009-06-12 19:00,28.2,,,1015.23,97.93,7.06,8.61,2.93,1.00,5.81,,,
2009-06-12 20:00,28.4,,,1014.69,103.43,6.44,7.42,2.85,1.00,5.22,,,
2009-06-12 21:00,28.1,,,1014.51,101.53,6.57,8.16,2.88,1.00,5.39,,,
2009-06-12 22:00,28.2,,,1014.93,86.23,6.43,7.64,2.55,1.00,5.24,,,
2009-06-12 23:00,28.1,,,1015.35,84.53,7.11,7.88,2.68,1.00,5.50,,,
2009-06-13 00:00,28.0,,,1015.65,82.53,7.21,8.20,0.79,1.00,5.84,,,
2009-06-13 01:00,28.0,,,1016.01,82.93,8.39,9.73,3.71,1.00,6.65,,,
2009-06-13 02:00,27.8,,,1016.55,67.95,7.25,8.22,2.85,1.00,5.94,,,
2009-06-13 03:00,27.6,,,1016.97,70.24,6.43,7.78,3.11,1.00,5.41,,,
2009-06-13 04:00,27.7,,,1016.79,76.83,7.87,10.10,3.75,1.00,6.47,,,
2009-06-13 05:00,27.6,,,1016.31,66.23,8.99,9.79,4.77,1.00,7.42,,,
2009-06-13 06:00,27.7,,,1015.65,76.79,8.13,9.54,2.83,1.00,5.80,,,
2009-06-13 07:00,27.6,,,1015.35,69.28,6.96,7.78,2.86,1.00,5.44,,,
2009-06-13 08:00,27.5,,,1015.29,63.42,6.57,8.10,3.21,1.00,5.45,,,
2009-06-13 09:00,27.3,,,1015.41,61.97,6.80,8.21,3.17,1.00,5.56,,,
2009-06-13 10:00,27.1,,,1015.47,55.83,7.20,8.81,2.55,1.00,5.26,,,
2009-06-13 11:00,27.7,,,1016.07,83.73,6.40,7.84,2.69,1.00,5.41,,,
2009-06-13 12:00,27.2,,,1016.37,48.48,5.64,6.76,2.74,1.00,4.46,,,
2009-06-13 13:00,27.8,,,1016.67,78.93,7.15,8.40,3.51,1.00,5.93,,,
2009-06-13 14:00,27.6,,,1016.73,77.63,7.27,8.44,3.41,1.00,5.77,,,
2009-06-13 15:00,27.7,,,1016.79,75.23,7.67,8.65,3.54,1.00,6.14,,,
2009-06-13 16:00,27.9,,,1016.37,86.73,7.33,8.67,3.66,1.00,6.01,,,
2009-06-13 17:00,28.4,,,1015.83,94.53,8.73,9.98,1.58,1.00,7.09,,,
2009-06-13 18:00,28.3,,,1015.35,105.53,8.31,9.44,4.16,1.00,6.72,,,
2009-06-13 19:00,28.4,,,1015.23,104.73,7.85,9.71,3.92,1.00,6.65,,,
2009-06-13 20:00,28.5,,,1014.87,109.13,8.13,8.96,3.81,1.00,6.60,,,
2009-06-13 21:00,28.5,,,1014.81,104.83,7.55,9.13,3.61,1.00,6.27,,,
2009-06-13 22:00,28.4,,,1015.35,106.53,6.70,7.95,3.01,1.00,5.59,,,
2009-06-13 23:00,28.3,,,1015.95,96.43,6.26,7.52,2.51,1.00,5.17,,,
2009-06-14 00:00,28.1,,,1016.43,85.13,7.39,9.32,4.07,1.00,6.26,,,
2009-06-14 01:00,28.0,,,1016.91,86.83,7.65,9.20,3.46,1.00,6.45,,,
2009-06-14 02:00,27.8,,,1017.15,77.86,8.10,9.18,4.24,1.00,6.69,,,
2009-06-14 03:00,27.8,,,1017.45,80.01,6.35,7.50,2.99,1.00,5.36,,,
2009-06-14 04:00,27.6,,,1016.91,76.28,6.58,7.74,3.51,1.00,5.44,,,
2009-06-14 05:00,27.5,,,1015.83,56.11,6.67,7.61,3.43,1.00,5.58,,,
2009-06-14 06:00,27.3,,,1015.41,37.51,5.42,6.29,2.31,1.00,4.48,,,
2009-06-14 07:00,27.4,,,1015.05,45.67,5.49,6.04,0.79,1.00,4.11,,,
2009-06-14 08:00,27.2,,,1015.05,57.66,5.21,5.85,2.00,1.00,4.07,,,
2009-06-14 09:00,27.2,,,1015.23,53.55,5.33,6.27,1.90,1.00,4.18,,,
2009-06-14 10:00,27.1,,,1015.29,48.73,6.46,7.68,3.12,1.00,5.28,,,
2009-06-14 11:00,27.0,,,1015.77,45.44,5.14,6.13,2.30,1.00,4.22,,,
2009-06-14 12:00,27.4,,,1016.07,62.08,5.77,6.67,2.37,1.00,4.44,,,
2009-06-14 13:00,27.8,,,1016.01,74.36,7.13,8.48,3.08,1.00,5.93,,,
2009-06-14 14:00,28.2,,,1016.61,84.23,8.35,9.78,4.57,1.00,6.91,,,
2009-06-14 15:00,28.1,,,1016.67,93.03,7.69,9.19,3.55,1.00,6.35,,,
2009-06-14 16:00,28.2,,,1016.49,104.13,7.45,8.95,3.38,1.00,6.08,,,
2009-06-14 17:00,28.3,,,1016.31,94.83,7.29,8.79,2.97,1.00,6.03,,,
2009-06-14 18:00,28.3,,,1015.83,100.73,6.61,7.95,2.91,1.00,5.36,,,
2009-06-14 19:00,27.9,,,1015.59,86.03,7.84,9.06,3.33,1.00,6.22,,,
2009-06-14 20:00,27.8,,,1015.35,92.33,10.54,11.42,4.22,1.00,8.04,,,
2009-06-14 21:00,27.3,,,1015.53,75.77,6.15,7.75,3.01,1.00,5.12,,,
2009-06-14 22:00,27.5,,,1015.77,73.69,6.12,7.32,2.61,1.00,5.04,,,
2009-06-14 23:00,27.5,,,1015.95,61.35,5.89,7.39,2.31,1.00,4.57,,,
2009-06-15 00:00,27.7,,,1016.07,64.27,6.03,7.09,2.73,1.00,4.99,,,
2009-06-15 01:00,27.8,,,1016.43,75.67,5.84,7.20,2.66,1.00,4.93,,,
2009-06-15 02:00,27.7,,,1016.97,67.86,6.74,8.04,2.77,1.00,5.44,,,
2009-06-15 03:00,27.5,,,1016.97,67.52,7.22,8.33,3.92,1.00,6.12,,,
2009-06-15 04:00,27.4,,,1016.49,55.33,6.94,8.45,3.01,1.00,5.28,,,
2009-06-15 05:00,27.3,,,1015.77,53.82,5.73,6.41,2.64,1.00,4.57,,,
2009-06-15 06:00,27.1,,,1015.53,28.35,5.03,5.82,2.04,1.00,3.81,,,
2009-06-15 07:00,27.0,,,1014.93,46.02,4.47,5.16,1.70,1.00,3.37,,,
2009-06-15 08:00,27.0,,,1015.17,31.34,4.45,5.03,1.74,1.00,3.52,,,
2009-06-15 09:00,27.0,,,1015.05,39.42,5.27,5.83,2.49,1.00,4.07,,,
2009-06-15 10:00,26.8,,,1015.17,41.51,6.59,7.22,3.16,1.00,5.12,,,
2009-06-15 11:00,27.0,,,1015.71,49.33,4.66,5.80,2.33,1.00,3.99,,,
2009-06-15 12:00,27.3,,,1015.95,68.10,6.45,7.38,2.74,1.00,5.01,,,
2009-06-15 13:00,27.7,,,1016.19,75.71,7.91,9.18,4.29,1.00,6.68,,,
2009-06-15 14:00,27.6,,,1016.43,86.73,8.59,9.53,3.94,1.00,6.84,,,
2009-06-15 15:00,27.9,,,1016.19,97.93,8.47,9.70,3.94,1.00,7.12,,,
2009-06-15 16:00,28.0,,,1016.19,103.33,8.49,10.01,3.95,1.00,6.69,,,
2009-06-15 17:00,28.0,,,1015.47,110.73,9.47,10.43,4.85,1.00,7.36,,,
2009-06-15 18:00,27.7,,,1015.47,100.63,7.43,8.98,3.57,1.00,6.20,,,
2009-06-15 19:00,27.9,,,1015.35,88.73,6.93,8.03,2.74,1.00,5.42,,,
2009-06-15 20:00,27.6,,,1014.87,86.43,8.57,10.40,3.86,1.00,7.17,,,
2009-06-15 21:00,27.5,,,1014.39,94.93,7.29,8.38,2.24,1.00,5.99,,,
2009-06-15 22:00,27.7,,,1014.93,78.65,7.17,7.86,3.70,1.00,5.91,,,
2009-06-15 23:00,27.9,,,1015.23,77.25,6.29,8.09,2.45,1.00,5.30,,,
2009-06-16 00:00,27.8,,,1015.65,78.91,7.28,8.94,2.73,1.00,5.47,,,
2009-06-16 01:00,28.0,,,1016.07,59.18,6.84,7.91,2.78,1.00,5.11,,,
2009-06-16 02:00,27.4,,,1016.37,44.86,4.58,5.77,2.07,1.00,3.72,,,
2009-06-16 03:00,27.5,,,1016.49,57.10,4.50,5.37,1.21,1.00,3.02,,,
2009-06-16 04:00,27.5,,,1016.07,66.81,5.69,6.92,2.37,1.00,4.42,,,
2009-06-16 05:00,27.6,,,1015.29,67.72,7.08,8.10,3.09,1.00,5.27,,,
2009-06-16 06:00,26.9,,,1014.99,69.70,9.34,10.76,2.55,1.00,5.36,,,
2009-06-16 07:00,27.1,,,1014.81,75.55,7.97,9.28,4.61,1.00,6.82,,,
2009-06-16 08:00,27.0,,,1014.69,80.88,9.26,10.77,4.33,1.00,7.61,,,
2009-06-16 09:00,27.2,,,1014.87,73.50,8.07,9.89,3.05,1.00,6.50,,,
2009-06-16 10:00,26.9,,,1015.17,73.90,5.82,7.14,2.83,1.00,4.90,,,
2009-06-16 11:00,27.2,,,1015.59,68.45,6.82,7.90,2.66,1.00,5.17,,,
2009-06-16 12:00,27.1,,,1015.95,56.83,6.38,7.76,2.74,1.00,4.78,,,
2009-06-16 13:00,27.6,,,1016.01,75.91,6.96,8.36,3.74,1.00,5.82,,,
2009-06-16 14:00,27.7,,,1016.49,86.13,8.60,9.77,4.41,1.00,7.00,,,
2009-06-16 15:00,27.9,,,1016.55,98.93,7.41,8.92,3.14,1.00,5.85,,,
2009-06-16 16:00,27.9,,,1016.13,99.83,7.64,8.71,2.87,1.00,6.28,,,
2009-06-16 17:00,27.9,,,1015.47,114.53,6.97,8.29,3.34,1.00,5.61,,,
2009-06-16 18:00,27.6,,,1014.87,117.03,6.26,7.84,2.53,1.00,5.21,,,
2009-06-16 19:00,27.9,,,1015.05,79.57,6.17,6.85,2.47,1.00,4.85,,,
2009-06-16 20:00,27.0,,,1015.05,168.83,3.57,4.64,0.99,1.00,2.92,,,
2009-06-16 21:00,27.0,,,1015.11,95.73,8.00,9.47,2.95,1.00,6.36,,,
2009-06-16 22:00,26.1,,,1014.93,90.73,7.50,8.36,3.39,1.00,5.78,,,
2009-06-16 23:00,26.8,,,1015.05,82.53,6.36,7.66,1.97,1.00,4.90,,,
2009-06-17 00:00,27.1,,,1016.13,61.81,6.37,7.81,2.67,1.00,5.14,,,
2009-06-17 01:00,26.9,,,1016.37,49.42,5.36,6.47,1.98,1.00,4.20,,,
2009-06-17 02:00,27.2,,,1016.49,64.87,4.90,6.12,1.66,1.00,3.90,,,
2009-06-17 03:00,27.1,,,1016.55,79.63,7.26,7.89,3.03,1.00,5.55,,,
2009-06-17 04:00,27.0,,,1016.13,74.58,7.85,8.83,3.80,1.00,6.62,,,
2009-06-17 05:00,26.2,,,1015.35,99.53,7.86,9.12,3.18,1.00,6.08,,,
2009-06-17 06:00,26.7,,,1015.11,63.58,6.69,7.57,3.48,1.00,5.37,,,
2009-06-17 07:00,27.0,,,1014.45,80.71,7.53,8.36,3.59,1.00,6.09,,,
2009-06-17 08:00,27.0,,,1014.33,80.19,10.50,11.73,3.85,1.00,6.36,,,
2009-06-17 09:00,26.5,,,1014.27,73.21,7.24,8.28,3.54,1.00,6.09,,,
2009-06-17 10:00,26.9,,,1014.81,57.80,5.87,6.64,1.92,1.00,4.42,,,
2009-06-17 11:00,25.6,,,1015.47,39.78,6.51,7.15,1.25,1.00,4.25,,,
2009-06-17 12:00,27.7,,,1015.65,87.03,8.00,9.39,2.74,1.00,5.68,,,
2009-06-17 13:00,27.5,,,1016.43,72.74,7.10,7.74,2.36,1.00,4.36,,,
2009-06-17 14:00,27.2,,,1016.97,72.66,4.64,5.83,1.97,1.00,3.77,,,
2009-06-17 15:00,27.4,,,1016.79,85.33,6.14,7.24,1.81,1.00,4.87,,,
2009-06-17 16:00,26.7,,,1016.43,39.23,4.33,5.35,2.03,1.00,3.60,,,
2009-06-17 17:00,27.3,,,1016.01,26.29,4.38,4.97,1.95,1.00,3.37,,,
2009-06-17 18:00,27.7,,,1015.29,100.73,6.04,7.33,3.08,1.00,5.09,,,
2009-06-17 19:00,28.2,,,1014.81,87.63,7.70,8.68,3.79,1.00,6.26,,,
2009-06-17 20:00,28.2,,,1014.21,94.43,7.85,9.32,3.72,1.00,6.36,,,
2009-06-17 21:00,28.3,,,1014.09,98.03,7.57,8.86,3.42,1.00,5.97,,,
2009-06-17 22:00,28.2,,,1014.03,101.73,7.34,8.75,3.02,1.00,6.09,,,
2009-06-17 23:00,28.0,,,1014.27,91.13,7.64,8.71,3.04,1.00,6.30,,,
2009-06-18 00:00,27.9,,,1014.51,91.33,7.88,9.10,3.10,1.00,6.55,,,
2009-06-18 01:00,28.0,,,1014.75,98.53,7.46,8.57,4.01,1.00,6.02,,,
2009-06-18 02:00,28.0,,,1014.81,89.73,7.79,9.70,0.79,1.00,6.58,,,
2009-06-18 03:00,27.5,,,1015.11,56.10,6.71,7.78,3.49,1.00,5.54,,,
2009-06-18 04:00,27.4,,,1014.87,65.00,6.84,7.64,2.34,1.00,5.47,,,
2009-06-18 05:00,26.7,,,1014.27,66.80,8.50,10.02,4.16,1.00,6.78,,,
2009-06-18 06:00,27.1,,,1013.55,41.19,5.72,6.97,2.73,1.00,4.84,,,
2009-06-18 07:00,26.9,,,1013.31,43.19,5.73,6.39,2.82,1.00,4.67,,,
2009-06-18 08:00,27.0,,,1013.49,67.81,6.74,7.86,3.20,1.00,5.46,,,
2009-06-18 09:00,27.0,,,1013.31,77.27,6.15,7.44,3.47,1.00,5.28,,,
2009-06-18 10:00,26.8,,,1013.61,61.08,6.47,8.14,3.04,1.00,5.34,,,
2009-06-18 11:00,27.1,,,1014.03,71.43,7.09,8.18,2.68,1.00,5.68,,,
2009-06-18 12:00,27.1,,,1014.51,62.86,5.31,6.23,2.07,1.00,4.33,,,
2009-06-18 13:00,25.8,,,1014.75,59.14,8.99,10.31,4.74,1.00,7.51,,,
2009-06-18 14:00,27.4,,,1015.11,66.86,5.33,6.32,2.14,1.00,4.38,,,
2009-06-18 15:00,27.3,,,1015.11,112.53,8.66,9.80,4.21,1.00,6.87,,,
2009-06-18 16:00,27.9,,,1014.81,91.73,8.35,9.43,3.34,1.00,6.64,,,
2009-06-18 17:00,28.1,,,1014.03,104.03,8.77,10.49,3.91,1.00,7.01,,,
2009-06-18 18:00,28.1,,,1013.55,96.93,9.54,10.56,4.30,1.00,7.14,,,
2009-06-18 19:00,28.1,,,1013.31,94.73,7.82,10.25,3.89,1.00,6.82,,,
2009-06-18 20:00,28.1,,,1012.59,100.03,8.84,10.12,4.18,1.00,7.26,,,
2009-06-18 21:00,28.3,,,1012.41,99.03,9.40,10.60,4.46,1.00,7.78,,,
2009-06-18 22:00,28.2,,,1012.89,94.63,8.84,9.94,3.69,1.00,7.25,,,
2009-06-18 23:00,27.9,,,1013.37,90.23,8.45,9.82,4.14,1.00,6.78,,,
2009-06-19 00:00,27.9,,,1014.21,91.73,7.60,8.88,3.42,1.00,6.40,,,
2009-06-19 01:00,28.0,,,1014.57,69.34,7.46,9.02,3.76,1.00,6.01,,,
2009-06-19 02:00,27.7,,,1014.87,74.26,7.29,8.27,3.06,1.00,5.78,,,
2009-06-19 03:00,27.7,,,1014.93,68.31,7.42,8.86,3.17,1.00,6.06,,,
2009-06-19 04:00,27.6,,,1014.45,73.61,7.99,9.35,3.85,1.00,6.69,,,
2009-06-19 05:00,27.4,,,1013.97,67.29,7.70,9.11,3.90,1.00,6.41,,,
2009-06-19 06:00,27.3,,,1013.31,60.41,7.50,9.31,3.11,1.00,6.17,,,
2009-06-19 07:00,27.2,,,1013.25,57.57,7.33,8.71,3.49,1.00,5.59,,,
2009-06-19 08:00,27.3,,,1013.43,52.83,7.41,8.46,3.21,1.00,5.30,,,
2009-06-19 09:00,27.0,,,1013.31,47.47,5.68,6.78,2.63,1.00,4.86,,,
2009-06-19 10:00,27.0,,,1013.91,45.91,6.59,7.57,2.71,1.00,5.03,,,
2009-06-19 11:00,27.5,,,1014.21,65.85,7.43,7.88,3.10,1.00,5.58,,,
2009-06-19 12:00,27.9,,,1014.21,86.03,8.65,9.96,4.41,1.00,7.30,,,
2009-06-19 13:00,28.1,,,1014.45,98.13,9.41,11.31,3.38,1.00,7.77,,,
2009-06-19 14:00,28.1,,,1014.57,100.33,8.35,10.40,3.31,1.00,6.65,,,
2009-06-19 15:00,28.1,,,1014.57,96.53,7.83,9.18,3.54,1.00,6.42,,,
2009-06-19 16:00,25.7,,,1014.69,114.63,10.14,11.56,2.21,1.00,6.49,,,
2009-06-19 17:00,28.0,,,1014.03,100.03,8.78,10.12,4.33,1.00,7.21,,,
2009-06-19 18:00,28.2,,,1013.43,96.93,8.06,9.90,3.23,1.00,6.50,,,
2009-06-19 19:00,28.3,,,1013.13,100.33,7.58,8.42,3.14,1.00,6.04,,,
2009-06-19 20:00,28.2,,,1012.71,93.23,7.70,9.08,3.67,1.00,6.44,,,
2009-06-19 21:00,28.3,,,1012.47,101.83,8.25,8.89,3.71,1.00,6.52,,,
2009-06-19 22:00,28.4,,,1012.47,104.03,7.91,9.58,3.69,1.00,6.49,,,
2009-06-19 23:00,28.1,,,1012.83,93.53,7.79,8.78,4.02,1.00,6.47,,,
2009-06-20 00:00,27.9,,,1013.55,80.76,7.93,9.34,3.95,1.00,6.85,,,
2009-06-20 01:00,27.8,,,1014.21,72.96,8.22,9.68,3.40,1.00,6.40,,,
2009-06-20 02:00,27.7,,,1014.45,77.19,7.60,8.73,3.73,1.00,6.50,,,
2009-06-20 03:00,27.7,,,1014.87,67.94,7.44,8.17,3.57,1.00,5.87,,,
2009-06-20 04:00,27.6,,,1015.05,65.96,9.88,11.25,3.82,1.00,6.64,,,
2009-06-20 05:00,26.2,,,1014.87,57.28,9.09,10.80,3.20,1.00,6.66,,,
2009-06-20 06:00,27.0,,,1014.21,52.74,8.38,9.23,4.14,1.00,6.40,,,
2009-06-20 07:00,26.0,,,1013.79,37.14,6.22,6.89,3.25,1.00,5.13,,,
2009-06-20 08:00,26.7,,,1013.73,35.40,6.00,7.09,3.20,1.00,5.00,,,
2009-06-20 09:00,26.8,,,1013.67,66.62,7.03,8.62,3.36,1.00,5.67,,,
2009-06-20 10:00,26.9,,,1013.85,49.21,6.50,7.28,3.13,1.00,5.13,,,
2009-06-20 11:00,27.5,,,1014.15,75.59,9.18,10.34,4.53,1.00,7.28,,,
2009-06-20 12:00,27.5,,,1014.39,68.76,9.14,11.41,4.85,1.00,7.66,,,
2009-06-20 13:00,28.0,,,1014.51,101.23,9.25,10.98,3.71,1.00,7.27,,,
2009-06-20 14:00,27.9,,,1014.57,110.03,8.24,9.66,3.79,1.00,6.54,,,
2009-06-20 15:00,28.1,,,1014.57,100.33,7.59,8.88,2.30,1.00,5.88,,,
2009-06-20 16:00,28.2,,,1014.15,108.43,7.87,9.39,3.76,1.00,6.54,,,
2009-06-20 17:00,28.2,,,1013.97,98.03,7.32,8.56,2.46,1.00,5.68,,,
2009-06-20 18:00,28.3,,,1013.43,110.43,8.08,9.56,3.58,1.00,6.44,,,
2009-06-20 19:00,28.3,,,1012.83,109.43,7.88,9.23,3.58,1.00,6.18,,,
2009-06-20 20:00,28.4,,,1012.59,110.83,8.46,9.88,3.64,1.00,6.74,,,
2009-06-20 21:00,28.5,,,1012.35,109.63,8.23,9.19,3.11,1.00,6.62,,,
2009-06-20 22:00,28.4,,,1012.35,101.53,7.70,8.91,3.75,1.00,6.14,,,
2009-06-20 23:00,28.1,,,1012.95,87.83,7.53,8.90,3.11,1.00,6.03,,,
2009-06-21 00:00,28.1,,,1013.31,90.13,7.18,8.26,3.47,1.00,6.15,,,
2009-06-21 01:00,28.0,,,1013.61,75.40,7.09,8.77,3.48,1.00,5.82,,,
2009-06-21 02:00,27.8,,,1013.97,67.39,6.73,7.91,2.92,1.00,5.52,,,
2009-06-21 03:00,27.5,,,1013.97,78.69,7.51,8.96,3.59,1.00,6.16,,,
2009-06-21 04:00,27.3,,,1013.55,77.95,8.31,9.29,3.96,1.00,6.33,,,
2009-06-21 05:00,27.0,,,1013.31,115.43,9.75,10.55,3.27,1.00,7.06,,,
2009-06-21 06:00,27.4,,,1012.89,56.73,6.89,7.93,3.89,1.00,5.90,,,
2009-06-21 07:00,27.1,,,1012.65,44.60,5.29,6.02,2.31,1.00,4.30,,,
2009-06-21 08:00,27.0,,,1012.53,44.06,5.51,6.32,2.12,1.00,4.35,,,
2009-06-21 09:00,26.9,,,1012.65,39.49,5.56,6.18,2.41,1.00,4.14,,,
2009-06-21 10:00,26.9,,,1012.65,52.47,5.45,6.84,2.42,1.00,4.41,,,
2009-06-21 11:00,27.0,,,1013.19,37.22,6.04,6.94,2.85,1.00,4.90,,,
2009-06-21 12:00,27.2,,,1013.55,51.87,5.83,6.89,2.47,1.00,4.62,,,
2009-06-21 13:00,27.2,,,1013.73,59.87,7.10,7.66,3.67,1.00,5.55,,,
2009-06-21 14:00,28.1,,,1013.79,100.13,6.55,8.25,3.14,1.00,5.65,,,
2009-06-21 15:00,28.0,,,1013.73,97.43,7.79,8.82,3.31,1.00,6.00,,,
2009-06-21 16:00,27.9,,,1013.67,90.73,7.54,9.40,3.17,1.00,6.44,,,
2009-06-21 17:00,27.9,,,1012.71,103.03,8.65,9.62,3.72,1.00,7.15,,,
2009-06-21 18:00,28.2,,,1012.23,112.43,7.79,8.88,3.68,1.00,6.39,,,
2009-06-21 19:00,28.3,,,1011.75,116.03,7.74,8.71,3.70,1.00,6.21,,,
2009-06-21 20:00,28.5,,,1011.33,117.73,7.01,8.70,3.45,1.00,6.12,,,
2009-06-21 21:00,28.2,,,1011.09,112.63,7.48,9.07,3.68,1.00,6.10,,,
2009-06-21 22:00,28.1,,,1011.45,112.33,6.35,9.13,0.79,1.00,5.35,,,
2009-06-21 23:00,28.1,,,1011.81,109.63,6.25,7.68,3.11,1.00,5.22,,,
2009-06-22 00:00,28.1,,,1012.53,100.53,5.86,7.28,2.70,1.00,4.79,,,
2009-06-22 01:00,28.0,,,1012.47,93.43,7.26,8.10,3.21,1.00,5.65,,,
2009-06-22 02:00,28.0,,,1013.37,88.23,6.00,7.49,2.79,1.00,4.77,,,
2009-06-22 03:00,28.0,,,1013.61,86.03,6.03,6.58,2.54,1.00,4.60,,,
2009-06-22 04:00,27.2,,,1013.43,40.15,4.51,5.88,2.42,1.00,3.89,,,
2009-06-22 05:00,27.1,,,1012.77,48.20,5.57,5.94,2.81,1.00,4.42,,,
2009-06-22 06:00,27.0,,,1012.05,41.91,6.02,6.55,3.12,1.00,4.82,,,
2009-06-22 07:00,26.8,,,1011.63,48.78,5.51,6.32,2.72,1.00,4.42,,,
2009-06-22 08:00,26.8,,,1011.63,36.97,5.23,5.92,2.40,1.00,4.31,,,
2009-06-22 09:00,26.7,,,1011.81,40.83,5.39,6.08,2.66,1.00,4.39,,,
2009-06-22 10:00,26.8,,,1011.99,45.38,4.73,6.37,1.46,1.00,3.42,,,
2009-06-22 11:00,26.9,,,1012.35,47.56,4.41,5.17,1.88,1.00,3.46,,,
2009-06-22 12:00,27.1,,,1012.47,72.34,4.69,5.54,1.38,1.00,3.49,,,
2009-06-22 13:00,27.9,,,1012.65,121.53,5.78,6.94,2.47,1.00,4.64,,,
2009-06-22 14:00,28.0,,,1012.89,114.23,6.05,7.10,1.74,1.00,4.15,,,
2009-06-22 15:00,28.1,,,1012.95,123.63,5.62,7.21,2.49,1.00,4.62,,,
2009-06-22 16:00,28.0,,,1013.01,121.63,5.86,7.02,2.15,1.00,4.54,,,
2009-06-22 17:00,28.1,,,1012.89,127.23,5.14,6.21,2.58,1.00,4.27,,,
2009-06-22 18:00,28.1,,,1012.53,128.93,5.92,6.50,0.79,1.00,4.73,,,
2009-06-22 19:00,28.4,,,1012.05,139.03,5.60,6.66,2.42,1.00,4.45,,,
2009-06-22 20:00,28.4,,,1011.69,145.53,4.71,6.22,1.61,1.00,3.67,,,
2009-06-22 21:00,28.4,,,1011.21,137.83,4.94,6.00,1.83,1.00,3.80,,,
2009-06-22 22:00,28.8,,,1011.57,137.83,4.78,5.58,1.96,1.00,3.73,,,
2009-06-22 23:00,28.1,,,1012.23,116.73,3.90,4.67,1.06,1.00,2.97,,,
2009-06-23 00:00,28.1,,,1012.95,119.93,3.57,4.33,0.74,1.00,2.71,,,
2009-06-23 01:00,28.1,,,1013.19,107.03,4.37,5.36,1.23,1.00,3.22,,,
2009-06-23 02:00,28.1,,,1013.91,95.83,3.84,4.65,1.09,1.00,2.93,,,
2009-06-23 03:00,28.1,,,1014.09,114.53,4.51,5.29,1.61,1.00,3.43,,,
2009-06-23 04:00,28.1,,,1013.85,115.73,5.24,6.44,1.86,1.00,4.27,,,
2009-06-23 05:00,28.0,,,1013.37,108.93,4.44,5.47,1.59,1.00,3.40,,,
2009-06-23 06:00,27.8,,,1012.71,116.03,5.76,6.25,2.07,1.00,4.62,,,
2009-06-23 07:00,27.6,,,1012.41,116.23,4.41,5.44,1.99,1.00,3.44,,,
2009-06-23 08:00,27.8,,,1012.11,127.93,4.64,5.84,2.15,1.00,3.91,,,
2009-06-23 09:00,27.9,,,1012.11,143.63,6.83,7.33,3.35,1.00,5.20,,,
2009-06-23 10:00,27.8,,,1012.47,130.43,5.52,6.53,2.23,1.00,4.47,,,
2009-06-23 11:00,27.9,,,1012.83,117.83,5.48,6.60,0.79,1.00,4.49,,,
2009-06-23 12:00,28.0,,,1013.13,119.03,6.91,7.96,3.10,1.00,5.56,,,
2009-06-23 13:00,28.2,,,1013.49,124.13,6.82,8.06,3.25,1.00,5.70,,,
2009-06-23 14:00,28.3,,,1013.79,134.43,7.02,8.11,3.31,1.00,5.65,,,
2009-06-23 15:00,28.3,,,1013.97,127.13,6.95,7.91,3.19,1.00,5.79,,,
2009-06-23 16:00,28.4,,,1014.09,131.93,6.62,7.53,2.94,1.00,5.47,,,
2009-06-23 17:00,28.5,,,1014.15,123.93,5.60,6.94,2.08,1.00,4.46,,,
2009-06-23 18:00,28.4,,,1013.67,123.03,6.17,7.08,2.55,1.00,4.97,,,
2009-06-23 19:00,28.6,,,1013.07,128.83,6.14,7.11,2.83,1.00,5.26,,,
2009-06-23 20:00,28.4,,,1012.77,133.03,5.42,6.46,2.36,1.00,4.34,,,
2009-06-23 21:00,28.6,,,1013.01,134.53,6.73,7.54,2.85,1.00,5.49,,,
2009-06-23 22:00,28.7,,,1013.49,130.93,6.34,7.28,2.65,1.00,5.11,,,
2009-06-23 23:00,28.5,,,1014.09,135.33,5.83,6.87,2.40,1.00,4.62,,,
2009-06-24 00:00,28.5,,,1014.69,144.53,5.86,7.21,2.73,1.00,4.91,,,
2009-06-24 01:00,28.5,,,1015.47,131.43,6.57,7.67,2.80,1.00,5.37,,,
2009-06-24 02:00,28.4,,,1015.59,132.23,6.14,7.27,2.79,1.00,5.11,,,
2009-06-24 03:00,28.3,,,1015.65,128.03,5.40,6.80,2.13,1.00,4.48,,,